Theta_e
307 308 309 310 310 311 311 311 310 310 308 309 310 315 315 314 312 314 315 314 313 316 316 317 317 316 317 315 315 311 313 316 322 336 333 334 330 329 327 332 332 332 338 338 340
308 310 310 311 312 312 313 312 312 311 309 310 311 315 315 313 314 317 319 314 315 316 317 316 315 314 313 316 314 313 311 315 315 328 331 332 329 327 333 334 331 337 339 341 343
310 311 312 313 314 314 314 314 314 311 309 310 312 315 314 315 321 324 317 314 314 316 315 315 316 314 316 313 313 312 313 313 316 315 325 331 326 326 332 334 329 337 342 343 343
311 312 313 314 315 315 316 316 315 312 310 311 313 315 314 322 326 323 316 315 315 315 315 314 313 315 315 315 313 315 312 313 315 316 323 327 329 327 332 331 328 335 341 343 342
312 313 314 315 316 317 317 316 314 314 314 313 313 314 316 316 315 323 321 313 316 317 315 313 315 313 314 311 312 313 314 313 312 313 321 325 327 329 328 328 327 337 341 342 341
313 314 315 316 317 317 318 316 314 316 318 315 314 314 320 314 319 323 318 317 317 316 314 314 315 313 316 315 316 314 315 316 315 319 322 326 328 327 326 329 333 340 340 339 340
314 315 316 317 318 318 318 315 315 315 317 314 314 318 318 312 318 321 317 318 320 317 312 314 316 316 315 315 315 316 318 316 318 330 332 328 330 327 324 330 332 337 339 337 337
314 315 316 317 318 319 316 315 315 318 316 315 316 320 314 317 322 319 317 317 317 315 314 315 315 315 315 314 313 317 317 321 319 332 331 332 335 330 327 330 332 331 333 335 334
313 314 316 317 318 318 316 316 315 318 315 315 320 319 317 323 324 324 316 317 313 312 314 315 314 312 312 313 312 312 319 321 319 320 327 332 333 329 328 330 331 332 331 332 331
312 313 315 317 317 317 317 315 314 323 320 320 322 316 319 322 324 322 319 318 317 315 315 314 309 311 307 310 312 316 316 315 316 317 321 328 329 326 328 329 330 331 331 331 331
312 314 315 317 317 317 318 315 311 312 315 312 313 315 314 316 317 319 318 317 318 315 318 313 313 313 312 312 314 315 315 315 314 314 317 317 325 325 325 328 328 329 331 331 331
313 314 315 317 317 317 317 312 314 314 313 311 309 310 314 315 314 317 320 321 319 318 314 312 314 313 313 312 314 314 316 314 314 315 317 324 326 326 325 329 328 328 329 330 330
313 314 315 317 318 318 315 314 316 313 311 312 313 311 312 313 313 315 318 316 316 314 313 313 314 314 315 316 316 315 316 315 316 315 319 328 319 330 327 325 325 324 326 327 329
314 314 314 315 317 315 316 317 317 314 312 317 322 317 313 312 316 315 317 317 316 315 312 314 314 316 315 316 315 317 314 316 316 315 315 322 316 324 330 325 324 324 321 325 327
314 314 313 311 312 313 318 318 317 313 318 323 319 317 313 314 317 317 317 318 318 316 315 317 317 316 317 318 316 316 316 316 316 314 314 315 316 314 323 331 328 326 324 323 324
314 314 310 311 311 316 316 318 313 314 326 321 318 318 316 315 315 316 318 317 317 318 317 316 315 316 317 317 315 317 316 313 310 310 314 314 314 313 314 317 320 325 327 328 326
314 315 310 309 313 315 316 311 309 310 315 318 318 317 316 317 316 316 317 317 316 318 318 317 318 317 317 318 317 314 314 318 320 316 317 313 314 313 315 315 317 318 317 320 324
315 312 310 313 315 314 314 308 313 312 318 316 318 317 316 316 316 315 316 315 316 316 315 318 320 319 318 318 319 317 316 319 323 320 319 313 316 316 316 314 314 315 316 318 315
313 310 314 317 317 316 307 309 308 312 316 320 318 315 315 315 316 314 317 317 318 317 318 318 318 319 319 319 320 319 317 316 316 313 315 314 315 316 317 319 318 320 320 320 318
308 309 314 318 317 313 307 309 314 315 319 322 320 315 315 315 316 315 316 323 326 323 317 318 320 320 321 320 319 318 316 319 314 320 320 316 317 318 319 318 319 319 320 322 322
307 307 314 317 316 311 315 313 316 317 320 324 323 323 316 320 317 317 319 324 324 327 320 320 319 322 321 322 321 319 317 314 313 314 318 318 318 315 319 320 321 321 323 326 326
304 305 312 315 315 310 316 317 318 320 319 318 321 320 318 320 319 318 324 324 321 326 327 325 319 322 318 319 321 321 320 316 318 320 316 316 320 318 319 322 326 325 327 327 327
303 303 313 313 317 312 313 317 318 321 318 318 321 321 321 322 322 323 324 321 320 322 325 325 319 321 319 317 320 326 324 320 316 316 320 322 322 315 326 326 325 326 324 325 326
303 308 310 308 308 313 313 315 317 316 317 318 318 318 321 321 318 321 320 320 320 320 326 326 321 320 321 319 327 330 328 326 321 321 322 320 322 320 327 326 325 325 322 322 323
303 310 308 313 312 310 311 312 315 315 314 315 316 317 320 320 319 318 317 317 317 320 319 317 322 326 327 326 326 325 326 327 326 321 323 326 320 327 326 324 323 323 321 322 322
308 309 307 309 309 312 310 313 315 316 314 318 316 317 316 317 317 318 316 316 316 317 317 315 318 323 324 322 323 325 324 324 323 323 323 322 321 325 323 321 322 321 321 321 321
306 306 306 308 309 310 311 314 316 313 314 315 314 314 318 317 316 315 312 312 313 315 314 314 316 320 319 320 319 313 318 319 320 329 330 330 329 325 322 320 321 320 320 321 320
Wind_Speed
27 27 26 26 26 25 25 25 23 23 17 16 13 13 11 9 8 7 6 5 7 7 12 11 5 1 1 1 2 4 4 1 4 4 2 3 4 3 3 6 2 5 7 8 27
29 28 27 27 28 27 27 25 25 23 17 15 13 13 10 7 7 9 4 12 13 14 12 10 3 4 2 3 2 4 4 6 5 5 3 5 6 8 2 2 1 4 7 27 28
29 29 28 28 29 28 28 25 26 21 16 13 11 11 8 7 2 4 9 17 19 14 8 6 10 3 2 2 1 2 4 4 7 8 7 7 6 8 9 5 7 8 15 19 22
30 30 30 30 30 30 29 29 27 19 14 12 9 8 5 2 3 2 9 20 13 14 10 7 4 3 2 2 4 1 9 6 7 5 2 7 8 6 9 8 5 11 18 16 15
29 31 31 31 32 32 31 32 25 22 18 12 6 4 2 2 6 4 11 20 16 16 8 5 4 5 2 3 4 5 5 6 13 3 7 3 5 7 9 3 8 16 16 15 14
31 33 33 33 34 33 34 30 26 21 13 6 4 2 1 2 3 2 18 21 15 15 8 7 6 6 2 3 3 6 5 10 6 5 4 6 4 6 4 7 11 17 17 15 16
33 34 34 35 37 36 35 25 25 16 6 4 6 4 3 9 1 5 21 20 14 16 5 7 5 3 3 4 2 1 5 8 2 3 3 6 2 13 7 11 15 15 14 14 15
34 34 35 36 36 37 29 27 17 8 3 5 7 3 5 2 4 11 14 9 12 12 11 2 7 1 1 4 6 2 3 3 2 4 3 3 9 11 8 14 15 13 14 15 16
34 36 36 36 37 36 27 21 8 5 5 6 3 1 6 1 3 6 14 4 9 10 6 1 1 1 5 3 6 7 2 1 8 2 4 1 7 11 13 13 14 17 16 15 14
35 36 36 36 38 26 24 7 6 3 2 1 0 2 2 1 1 3 9 7 3 5 2 2 4 3 4 5 4 3 3 4 3 5 3 6 11 4 9 16 20 20 17 15 16
33 36 36 36 38 17 21 4 7 4 3 5 1 2 4 6 3 3 5 8 2 6 2 2 4 4 7 5 3 1 3 4 6 6 4 6 7 11 8 6 7 14 15 17 20
34 35 36 35 33 12 11 6 4 4 8 7 8 6 6 2 4 2 10 5 3 4 3 5 5 8 3 4 4 5 4 7 8 4 5 4 8 9 9 15 18 14 15 20 19
33 35 36 35 21 11 7 6 13 5 2 8 4 4 4 10 6 6 7 5 4 5 4 6 6 6 5 3 3 4 4 6 8 5 1 2 7 5 3 3 5 8 8 10 17
32 34 35 38 6 19 4 12 19 5 4 6 2 0 4 4 3 9 10 7 2 9 7 5 3 3 3 3 6 3 5 7 5 3 3 3 4 6 5 5 8 11 10 16 20
32 33 34 30 16 6 7 18 11 3 3 5 2 5 3 3 1 1 3 5 7 6 6 7 4 4 2 6 6 9 1 2 0 3 4 5 3 7 4 5 9 15 17 18 20
33 33 37 12 13 12 13 16 2 5 4 6 3 2 2 2 4 1 4 4 3 5 3 8 2 6 8 3 7 1 3 7 5 4 2 5 4 6 3 8 4 6 11 16 19
35 32 31 14 4 8 14 3 5 4 5 6 4 5 2 2 5 5 4 4 4 1 4 6 5 4 4 2 1 5 6 3 4 3 6 2 4 8 8 10 8 10 9 12 13
37 32 18 9 11 9 5 5 2 2 3 4 5 4 3 4 4 6 3 2 3 4 3 2 8 1 1 3 2 2 6 5 6 4 6 3 5 7 10 7 8 9 10 11 10
35 19 5 9 3 3 5 3 5 3 3 7 7 4 5 4 3 3 4 2 4 2 3 4 6 5 5 6 8 3 4 4 5 3 3 3 7 10 6 9 7 8 12 12 15
26 12 8 4 2 3 4 3 2 3 3 2 1 3 2 5 4 5 2 5 6 4 1 1 4 4 6 2 2 5 5 1 1 2 4 4 4 5 6 8 9 13 14 18 19
8 3 4 3 4 5 3 4 3 5 4 2 1 3 1 1 1 1 3 1 5 7 3 3 3 7 2 0 2 3 3 4 4 5 6 3 6 7 0 3 7 8 8 13 16
8 2 9 2 4 1 2 2 4 4 4 3 1 2 3 3 3 1 3 2 8 4 3 3 2 4 9 6 2 2 2 3 4 5 2 3 6 3 7 5 6 7 12 12 12
3 3 5 5 1 2 4 3 2 3 4 5 5 4 5 4 0 3 3 3 8 4 2 4 2 5 10 6 5 5 3 3 2 2 5 5 5 5 5 7 9 10 12 12 14
3 4 4 4 2 3 2 2 4 5 3 2 3 4 4 5 5 2 3 1 4 4 4 3 1 5 6 7 0 5 9 3 1 1 3 6 6 10 14 14 13 8 10 10 10
3 1 2 3 3 3 1 3 3 5 5 6 4 3 2 1 3 2 3 5 4 1 3 3 3 5 7 7 5 11 11 8 5 8 7 7 8 4 6 7 7 7 11 12 13
2 2 4 2 3 3 3 1 2 5 4 4 3 3 2 3 2 2 1 3 5 2 2 1 4 3 5 11 12 11 11 12 15 15 14 9 3 2 5 5 3 6 10 12 14
2 1 3 2 3 0 1 1 2 3 0 5 2 2 2 0 3 6 5 5 5 2 0 2 2 2 4 6 5 6 8 13 5 6 4 4 2 4 6 11 3 4 7 10 13
Wind_Direction
5 3 2 359 356 354 352 351 348 345 339 338 332 329 323 297 288 280 244 208 190 176 158 150 142 127 337 65 117 137 56 254 217 188 230 164 120 279 319 131 125 162 153 158 150
2 360 358 356 354 351 349 348 344 341 337 337 331 328 327 310 296 251 228 176 157 149 146 141 140 112 24 349 5 91 117 233 200 199 188 184 149 170 89 157 176 61 85 132 149
359 358 354 353 351 349 347 344 341 337 333 336 329 327 331 329 285 255 166 159 164 163 138 143 128 100 65 16 238 137 201 223 269 216 157 167 159 158 130 249 218 173 152 150 156
357 355 351 349 348 346 344 341 338 334 327 325 322 322 334 353 128 114 156 168 158 166 136 122 73 66 97 196 200 176 251 212 268 260 295 179 147 179 174 203 212 163 159 157 166
354 353 350 347 345 344 342 338 337 326 310 293 295 308 355 330 252 352 172 170 170 166 153 132 133 140 207 211 143 204 266 243 253 315 233 198 168 180 220 12 121 139 166 167 175
352 351 349 346 344 343 340 338 337 331 325 268 221 189 126 288 313 342 167 164 166 163 170 166 183 189 179 236 179 204 259 271 293 272 252 163 163 147 207 122 120 154 179 174 185
351 350 348 345 345 342 338 339 337 337 332 173 168 149 117 234 283 129 172 179 179 184 152 213 185 152 167 292 255 237 298 305 232 179 131 135 83 232 160 151 158 176 189 181 195
350 349 347 346 345 341 340 334 337 0 82 143 149 145 236 248 8 177 171 175 202 203 220 269 201 103 190 292 358 44 65 340 326 148 298 73 237 244 162 157 183 177 197 195 197
348 348 347 346 345 341 344 335 7 57 103 125 110 137 275 268 248 205 193 165 188 208 222 117 69 78 19 56 3 6 246 250 323 195 120 149 249 257 167 175 191 195 195 204 197
347 346 345 345 345 345 353 8 27 75 77 38 318 27 292 168 262 274 204 158 139 128 104 108 55 72 34 69 223 264 346 319 263 295 47 207 253 248 209 180 195 200 200 203 205
346 345 344 342 344 345 3 1 9 350 24 215 239 279 271 312 294 217 155 130 39 63 150 13 77 209 223 196 184 250 229 256 255 246 227 237 252 274 197 212 216 206 206 213 218
345 344 342 341 343 356 18 84 88 278 303 242 237 256 254 55 345 298 158 114 129 196 101 22 252 229 172 162 195 225 265 275 280 264 174 141 250 258 179 214 208 200 205 215 229
342 343 341 340 341 357 13 110 342 317 292 302 205 185 202 143 209 247 139 126 143 149 177 165 229 113 169 191 223 226 207 253 225 337 258 27 318 314 270 253 209 223 220 239 228
339 340 339 339 350 340 326 336 337 173 43 284 349 192 107 155 233 200 191 144 140 192 160 232 257 206 167 235 155 289 203 247 277 79 220 68 267 300 280 247 214 227 221 229 235
336 337 335 337 303 296 314 329 340 139 30 313 50 166 123 166 282 99 190 62 185 176 128 248 200 192 188 224 169 235 159 300 217 113 44 319 69 264 306 265 245 237 229 235 237
333 332 330 326 302 291 317 329 48 46 259 342 98 51 112 19 311 61 137 73 152 150 266 238 216 169 212 190 190 297 89 42 53 78 54 260 136 291 216 229 247 263 252 246 242
331 328 319 299 252 295 327 16 42 134 320 338 341 5 235 340 7 5 164 146 148 97 334 321 253 242 170 290 111 78 57 338 341 3 219 170 91 234 269 264 226 259 254 251 255
331 329 321 302 294 279 325 54 141 283 312 344 350 336 87 346 35 352 50 72 71 104 109 84 324 0 114 209 253 153 150 162 228 230 260 88 238 247 230 292 262 268 266 289 260
333 336 356 356 18 117 74 77 203 201 328 334 329 60 349 5 89 72 35 26 47 49 155 177 265 293 228 206 149 226 201 191 118 25 67 247 297 306 301 285 318 324 358 335 337
334 333 350 349 87 10 74 222 254 218 326 336 297 25 28 340 52 41 51 334 334 10 19 253 305 263 296 354 47 172 161 98 3 230 255 288 278 235 287 343 337 5 357 347 349
349 14 7 39 350 46 128 229 291 270 301 233 281 307 292 245 94 293 29 330 341 317 8 36 127 287 342 204 212 339 278 43 123 145 179 207 256 215 21 351 8 356 358 353 349
346 10 354 54 44 31 125 200 290 305 359 346 12 276 194 173 198 61 124 27 326 313 26 27 154 266 235 269 351 205 314 127 130 275 219 167 263 144 95 64 21 16 5 356 352
354 277 354 14 117 342 313 302 272 324 351 358 12 20 26 42 42 71 79 297 18 53 55 328 335 348 334 355 18 51 27 124 125 79 214 146 261 143 66 48 15 20 5 355 351
14 350 327 39 29 103 14 297 313 337 70 56 7 40 54 35 16 97 25 2 341 34 45 120 78 182 207 260 332 303 320 304 172 189 248 224 277 307 2 359 354 6 354 350 352
24 339 165 326 2 3 295 343 345 351 15 24 32 63 171 81 356 48 356 332 318 24 47 93 251 204 239 252 280 288 282 256 237 236 237 258 240 19 335 325 322 350 343 354 354
38 21 354 288 310 297 349 46 27 335 10 339 102 21 32 157 205 236 55 213 242 303 64 26 257 203 262 260 256 260 270 267 273 265 254 254 216 302 282 301 356 343 351 354 347
8 50 111 301 341 70 251 335 54 344 172 61 342 103 88 111 285 249 224 246 247 223 184 260 188 74 257 274 339 312 250 253 268 49 333 20 331 326 328 334 357 320 352 343 339